Weather History for San Carlos, CA

Change the Weather History Date:

Wednesday, June 12, 2013

  Actual Average Record
Temperature  
Mean Temperature 63 °F -  
Max Temperature 71 °F 77 °F 94 °F (1966)
Min Temperature 55 °F 51 °F 41 °F (1968)
Degree Days  
Heating Degree Days 2    
Growing Degree Days 13 (Base 50)    
Moisture  
Dew Point 46 °F    
Average Humidity 61    
Maximum Humidity 72    
Minimum Humidity 38    
Precipitation  
Precipitation 0.00 in - - ()
Sea Level Pressure  
Sea Level Pressure 29.97 in    
Wind  
Wind Speed 4 mph (WNW)    
Max Wind Speed 17 mph    
Max Gust Speed 24 mph    
Visibility 10 miles    
Events      
Averages and records for this station are not official NWS values.
T = Trace of Precipitation, MM = Missing Value Source: NWS Daily Summary

Daily Weather History Graph

Daily Weather History Graph

Search for Another Location

Airport:

Trip Planner

Search our weather history database for the weather conditions in past years. The results will help you decide how hot, cold, wet, or windy it might be!

Date:

Astronomy

Jun. 12, 2013 Rise Set
Actual Time 5:47 AM PDT 8:30 PM PDT
Civil Twilight 5:16 AM PDT 9:01 PM PDT
Nautical Twilight 4:37 AM PDT 9:40 PM PDT
Astronomical Twilight 3:53 AM PDT 10:24 PM PDT
Moon 9:28 AM PDT (6/12) 11:13 PM PDT (6/12)
Length of Visible Light 15h 45m
Length of Day
14h 43m
Waxing Crescent, 15% of the Moon is Illuminated
Jun 12
Waxing Crescent
Jun 16
First Quarter
Jun 23
Full
Jun 29
Last Quarter
Jul 8
New

Hourly Weather History & Observations

Time (PDT) Temp. Dew Point Humidity Pressure Visibility Wind Dir Wind Speed Gust Speed Precip Events Conditions
12:10 AM 59.0 °F 48.2 °F 67% 29.94 in 10.0 mi Calm Calm - N/A   Clear
12:30 AM 59.0 °F 48.2 °F 67% 29.94 in 10.0 mi NNW 3.5 mph - N/A   Clear
12:50 AM 57.2 °F 46.4 °F 67% 29.94 in 10.0 mi NW 3.5 mph - N/A   Clear
1:10 AM 57.2 °F 46.4 °F 67% 29.94 in 10.0 mi NW 3.5 mph - N/A   Clear
1:30 AM 57.2 °F 46.4 °F 67% 29.94 in 10.0 mi Calm Calm - N/A   Clear
1:50 AM 57.2 °F 46.4 °F 67% 29.94 in 10.0 mi NW 3.5 mph - N/A   Clear
2:10 AM 57.2 °F 46.4 °F 67% 29.94 in 10.0 mi NW 3.5 mph - N/A   Clear
2:30 AM 57.2 °F 46.4 °F 67% 29.94 in 10.0 mi NW 4.6 mph - N/A   Clear
2:50 AM 57.2 °F 46.4 °F 67% 29.93 in 10.0 mi Calm Calm - N/A   Clear
3:10 AM 55.4 °F 46.4 °F 72% 29.93 in 10.0 mi Calm Calm - N/A   Clear
3:30 AM 55.4 °F 46.4 °F 72% 29.93 in 10.0 mi NW 6.9 mph - N/A   Clear
3:50 AM 55.4 °F 46.4 °F 72% 29.93 in 10.0 mi Calm Calm - N/A   Clear
4:10 AM 55.4 °F 44.6 °F 67% 29.93 in 10.0 mi Calm Calm - N/A   Clear
4:30 AM 55.4 °F 46.4 °F 72% 29.94 in 10.0 mi Calm Calm - N/A   Clear
4:50 AM 55.4 °F 46.4 °F 72% 29.93 in 10.0 mi Calm Calm - N/A   Clear
5:10 AM 55.4 °F 46.4 °F 72% 29.94 in 10.0 mi Calm Calm - N/A   Clear
5:30 AM 55.4 °F 46.4 °F 72% 29.95 in 10.0 mi NW 3.5 mph - N/A   Clear
5:50 AM 55.4 °F 46.4 °F 72% 29.96 in 10.0 mi NW 3.5 mph - N/A   Clear
6:10 AM 55.4 °F 46.4 °F 72% 29.96 in 10.0 mi Calm Calm - N/A   Clear
6:30 AM 55.4 °F 46.4 °F 72% 29.96 in 10.0 mi Calm Calm - N/A   Clear
6:50 AM 57.2 °F 46.4 °F 67% 29.96 in 10.0 mi Calm Calm - N/A   Clear
7:51 AM 59.0 °F 50.0 °F 72% 29.97 in 10.0 mi Calm Calm - N/A   Partly Cloudy
8:53 AM 64.4 °F 44.6 °F 49% 29.98 in 10.0 mi WNW 5.8 mph - N/A   Partly Cloudy
9:53 AM 66.2 °F 44.6 °F 46% 29.99 in 10.0 mi NW 11.5 mph - N/A   Partly Cloudy
10:47 AM 68.0 °F 44.6 °F 43% 29.99 in 10.0 mi NW 11.5 mph - N/A   Partly Cloudy
11:57 AM 69.8 °F 44.6 °F 40% 29.99 in 10.0 mi WNW 10.4 mph - N/A   Partly Cloudy
12:47 PM 71.6 °F 46.4 °F 41% 29.99 in 10.0 mi West 11.5 mph - N/A   Partly Cloudy
1:47 PM 71.6 °F 44.6 °F 38% 29.99 in 10.0 mi West 11.5 mph 16.1 mph N/A   Clear
2:47 PM 71.6 °F 46.4 °F 41% 29.99 in 10.0 mi West 15.0 mph 20.7 mph N/A   Clear
3:50 PM 68.0 °F 46.4 °F 46% 29.99 in 10.0 mi West 13.8 mph - N/A   Clear
4:53 PM 69.8 °F 44.6 °F 40% 29.99 in 10.0 mi West 13.8 mph 24.2 mph N/A   Clear
5:56 PM 66.2 °F 42.8 °F 43% 29.98 in 10.0 mi West 17.3 mph 24.2 mph N/A   Clear
6:49 PM 64.4 °F 44.6 °F 49% 29.99 in 10.0 mi West 15.0 mph 21.9 mph N/A   Partly Cloudy
7:50 PM 62.6 °F 44.6 °F 52% 30.00 in 10.0 mi West 9.2 mph 19.6 mph N/A   Partly Cloudy
9:10 PM 59.0 °F 44.6 °F 59% 30.01 in 10.0 mi West 10.4 mph - N/A   Clear
9:30 PM 59.0 °F 44.6 °F 59% 30.02 in 10.0 mi WNW 4.6 mph - N/A   Clear
9:50 PM 59.0 °F 44.6 °F 59% 30.02 in 10.0 mi WNW 6.9 mph - N/A   Clear
10:10 PM 57.2 °F 44.6 °F 63% 30.02 in 10.0 mi West 8.1 mph - N/A   Clear
10:30 PM 57.2 °F 44.6 °F 63% 30.03 in 10.0 mi NW 12.7 mph 17.3 mph N/A   Clear
10:50 PM 57.2 °F 44.6 °F 63% 30.03 in 10.0 mi NW 10.4 mph - N/A   Clear
11:10 PM 57.2 °F 44.6 °F 63% 30.03 in 10.0 mi WNW 6.9 mph - N/A   Clear
11:30 PM 57.2 °F 44.6 °F 63% 30.03 in 10.0 mi West 8.1 mph - N/A   Clear
11:50 PM 59.0 °F 42.8 °F 55% 30.03 in 10.0 mi West 9.2 mph - N/A   Clear